Location: Glencliff
(36.1226°N, 86.7183°W)
Time: 16:18:21
(UTC+00:00)

ARIANE 5 R/B - Pass Details

Date: 25 August 2019
Orbit: 748 x 795 km, 98.6° (Epoch: 18 October)

Event Time Altitude Azimuth Distance (km) Brightness Sun altitude
Rises 09:28:03 0° 356° (N) 3,303 6.2 -20.3°
Reaches altitude 10° 09:30:55 10° 341° (NNW) 2,367 5.2 -19.9°
Maximum altitude 09:34:40 20° 294° (WNW) 1,741 4.0 -19.2°
Enters shadow 09:34:52 20° 291° (WNW) 1,742 4.0 -19.2°
